This demonstration page uses our WeatherBlox Daily Observations layout. Learn more.

Left ArrowRight Arrow

Hourly Observations for March 26, 2020

Temp ( °F °C ) Dew Point ( °F °C ) Humidity (%) Winds ( mph kmh ) Pressure ( in mb ) Visibility ( mi km ) Precip ( " mm )
12:15 am 00:15 Cloudy 50 10 46 8 88 88 NNW 10 17 29.80 1009 10 16 0.00 0.00
12:45 am 00:45 Cloudy 48 9 46 8 94 94 N 8 13 29.81 1009 10 16 0.00 0.00
12:56 am 00:56 Cloudy 48 9.1 46 7.9 92 92 N 7 11 29.82 1010 10 16 0.00 0.00
1:56 am 01:56 Cloudy 46 7.7 44 6.5 92 92 NNE 13 20 29.81 1009 8 13 0.00 0.00
2:41 am 02:41 Cloudy 45 7 43 6 93 93 NNE 9 15 29.82 1010 7 11 0.00 0.00
2:56 am 02:56 Cloudy 44 6.9 42 5.5 91 91 NNE 12 19 29.81 1009 10 16 0.00 0.00
3:56 am 03:56 Cloudy 43 6.3 41 4.9 91 91 NNE 12 19 29.80 1009 10 16 0.00 0.00
4:41 am 04:41 Cloudy 43 6 41 5 93 93 NNE 12 19 29.77 1008 10 16 0.00 0.00
4:56 am 04:56 Cloudy 43 5.9 40 4.4 90 90 NNE 15 24 29.75 1008 10 16 0.00 0.00
5:26 am 05:26 Cloudy 43 6 39 4 87 87 NNE 12 19 29.75 1008 10 16 0.00 0.00
5:56 am 05:56 Cloudy 43 6.2 40 4.5 89 89 NE 12 19 29.75 1008 10 16 0.00 0.00
6:56 am 06:56 Cloudy 43 6.2 40 4.4 88 88 NNE 10 17 29.78 1008 10 16 0.00 0.00
7:26 am 07:26 Cloudy 43 6 39 4 87 87 NNE 9 15 29.81 1009 10 16 0.00 0.00
7:56 am 07:56 Cloudy 43 6 40 4.2 88 88 NE 12 19 29.77 1008 10 16 0.00 0.00
7:57 am 07:57 Cloudy 43 6 39 4 87 87 NE 12 19 29.77 1008 10 16 0.00 0.00
8:56 am 08:56 Cloudy 43 6.2 39 4 86 86 NE 9 15 29.81 1009 10 16 0.00 0.00
9:56 am 09:56 Cloudy 43 6.3 39 4.1 86 86 NE 9 15 29.83 1010 10 16 0.00 0.00
10:26 am 10:26 Cloudy 45 7 41 5 87 87 NNE 8 13 29.84 1011 10 16 0.00 0.00
10:41 am 10:41 Cloudy 45 7 41 5 87 87 NE 9 15 29.84 1011 10 16 0.00 0.00
10:56 am 10:56 Cloudy 45 7.4 40 4.7 83 83 NNE 8 13 29.84 1011 10 16 0.00 0.00
11:41 am 11:41 Cloudy 46 8 41 5 82 82 NNE 9 15 29.85 1011 10 16 0.00 0.00
11:56 am 11:56 Cloudy 47 8.2 41 4.8 79 79 N 9 15 29.84 1011 10 16 0.00 0.00
12:11 pm 12:11 Cloudy 48 9 41 5 76 76 NNE 9 15 29.84 1011 10 16 0.00 0.00
12:56 pm 12:56 Cloudy 51 10.6 43 6 73 73 NE 12 19 29.82 1010 10 16 0.00 0.00
1:11 pm 13:11 Cloudy 52 11 43 6 72 72 N 12 19 29.82 1010 10 16 0.00 0.00
1:41 pm 13:41 Partly Cloudy 54 12 45 7 72 72 N 10 17 29.81 1009 10 16 0.00 0.00
1:56 pm 13:56 Partly Cloudy 54 12.4 44 6.4 67 67 NNE 10 17 29.79 1009 10 16 0.00 0.00
2:56 pm 14:56 Partly Cloudy 57 13.7 45 7 64 64 N 9 15 29.76 1008 10 16 0.00 0.00
3:56 pm 15:56 Partly Cloudy 58 14.5 45 7.1 61 61 NE 10 17 29.75 1007 10 16 0.00 0.00
4:56 pm 16:56 Mostly Sunny 60 15.3 44 6.6 56 56 ENE 9 15 29.76 1008 10 16 0.00 0.00
5:56 pm 17:56 Mostly Cloudy 56 13.5 44 6.8 64 64 NNE 14 22 29.77 1008 10 16 0.00 0.00
6:56 pm 18:56 Partly Cloudy 53 11.5 43 6.2 70 70 NE 14 22 29.79 1009 10 16 0.00 0.00
7:56 pm 19:56 Mostly Clear 50 10.2 43 6 75 75 NNE 12 19 29.78 1009 10 16 0.00 0.00
8:56 pm 20:56 Cloudy 50 9.8 43 6 77 77 NE 15 24 29.78 1009 10 16 0.00 0.00
9:56 pm 21:56 undefined 50 9.8 43 6 77 77 NE 12 19 29.78 1009 10 16 0.00 0.00
10:56 pm 22:56 Cloudy 49 9.7 43 6 78 78 NE 12 19 29.79 1009 10 16 0.00 0.00
11:56 pm 23:56 Cloudy 49 9.6 43 6.1 79 79 NE 14 22 29.78 1009 10 16 0.00 0.00

Powered by AerisWeather